This demonstration page uses our WeatherBlox Daily Observations layout. Learn more.

Left ArrowRight Arrow

38.20091, -84.87328

Hourly Observations for September 12, 2016

Temp ( °F °C ) Dew Point ( °F °C ) Humidity (%) Winds ( mph kmh ) Pressure ( in mb ) Visibility ( mi km ) Precip ( " mm )
12:53 am 00:53 Clear 58 14.4 55 12.8 90 90 Calm 30.14 1021 10 16 0.00 0.00
1:53 am 01:53 Clear 56 13.3 53 11.7 90 90 Calm 30.14 1021 10 16 0.00 0.00
2:53 am 02:53 Clear 56 13.3 53 11.7 90 90 Calm 30.12 1020 10 16 0.00 0.00
3:53 am 03:53 Clear 56 13.3 52 11.1 87 87 NNW 3 6 30.12 1020 10 16 0.00 0.00
4:53 am 04:53 Clear 55 12.8 52 11.1 90 90 Calm 30.12 1020 10 16 0.00 0.00
5:53 am 05:53 Clear 55 12.8 51 10.6 87 87 Calm 30.13 1020 10 16 0.00 0.00
6:53 am 06:53 Clear 54 12.2 50 10 87 87 Calm 30.14 1021 10 16 0.00 0.00
7:53 am 07:53 Sunny 55 12.8 51 10.6 87 87 Calm 30.15 1021 10 16 0.00 0.00
8:53 am 08:53 Sunny 62 16.7 55 12.8 78 78 ENE 3 6 30.16 1021 10 16 0.00 0.00
9:53 am 09:53 Sunny 68 20 56 13.3 65 65 E 5 7 30.16 1021 10 16 0.00 0.00
10:53 am 10:53 Sunny 74 23.3 56 13.3 54 54 NE 5 7 30.16 1021 10 16 0.00 0.00
11:53 am 11:53 Sunny 78 25.6 53 11.7 42 42 NE 8 13 30.15 1021 10 16 0.00 0.00
12:53 pm 12:53 Sunny 80 26.7 52 11.1 38 38 E 9 15 30.14 1021 10 16 0.00 0.00
1:53 pm 13:53 Sunny 82 27.8 51 10.6 34 34 Calm 30.12 1020 10 16 0.00 0.00
2:53 pm 14:53 Sunny 83 28.3 52 11.1 34 34 VRB 3 6 30.10 1019 10 16 0.00 0.00
3:53 pm 15:53 Sunny 85 29.4 52 11.1 32 32 VRB 3 6 30.07 1018 10 16 0.00 0.00
4:53 pm 16:53 Sunny 84 28.9 50 10 31 31 SE 6 9 30.07 1018 10 16 0.00 0.00
5:53 pm 17:53 Sunny 83 28.3 49 9.4 31 31 S 5 7 30.05 1018 10 16 0.00 0.00
6:53 pm 18:53 Sunny 83 28.3 51 10.6 33 33 NNW 5 7 30.05 1018 10 16 0.00 0.00
7:53 pm 19:53 Clear 73 22.8 58 14.4 59 59 WSW 3 6 30.06 1018 10 16 0.00 0.00
8:53 pm 20:53 Clear 69 20.6 58 14.4 68 68 Calm 30.07 1018 10 16 0.00 0.00
9:53 pm 21:53 Clear 64 17.8 57 13.9 78 78 Calm 30.08 1019 10 16 0.00 0.00
10:53 pm 22:53 Clear 62 16.7 57 13.9 84 84 Calm 30.09 1019 10 16 0.00 0.00
11:53 pm 23:53 Clear 61 16.1 57 13.9 87 87 Calm 30.09 1019 10 16 0.00 0.00

Powered by AerisWeather